Flag for Germany Weather past 2 weeks in Magdeburg, Saxony-Anhalt, Germany

Now
43 °F

Passing clouds.


Feels Like: 39 °F
Forecast: 40 / 44 °F
Wind: 6 mph from West

Location: Magdeburg

Current Time: Dec 20, 2014 at 12:58:14 AM

Latest Report: Dec 20, 2014 at 12:00 AM


Visibility: 31 mi

Pressure: 29.94 "Hg

Humidity: 72%

Dew point: 34 °F

Location of MagdeburgLocation

Historic Weather in Magdeburg — Graph

°F

Magdeburg temperature yesterday

Maximum temperature yesterday: 54 °F (at 2:00 PM)
Minimum temperature yesterday: 44 °F (at 11:00 PM)
Average temperature yesterday: 51 °F

Past Weeks' High & Low Weather Summary

 TemperatureHumidityPressure
High56 °F (Dec 18, 11:00 PM)99% (Dec 7, 8:00 AM)30.38 "Hg (Dec 7, 8:00 AM)
Low28 °F (Dec 15, 3:00 AM)67% (Dec 12, 1:00 PM)29.38 "Hg (Dec 12, 5:00 PM)
Average40 °F85%29.93 "Hg
* Reported Midnight between Dec 4 and Dec 5 — Midnight between Dec 19 and Dec 20, Magdeburg, Weather by CustomWeather, © 2014

Note: Actual official high and low records may vary slightly from our data, if they occured in-between our weather recording intervals... More about our weather records

Advertising

Magdeburg weather history for previous 24 hours

 ConditionsComfort  
Time TempWeatherWind HumidityBarometerVisibility
12:00 AM
Dec 20
43 °FPassing clouds.6 mph72%29.94 "Hg31 mi
11:00 PM
Dec 19
44 °FPassing clouds.7 mph69%29.92 "Hg31 mi
9:00 PM44 °FOvercast.5 mph75%29.90 "Hg25 mi
8:00 PM44 °FPassing clouds.6 mph73%29.87 "Hg31 mi
7:00 PM45 °FOvercast.6 mph75%29.83 "Hg31 mi
6:00 PM47 °FOvercast.7 mph74%29.80 "Hg31 mi
5:00 PM48 °FOvercast.6 mph75%29.77 "Hg31 mi
3:00 PM49 °FLight rain. Overcast.6 mph91%29.74 "Hg6 mi
2:00 PM54 °FOvercast.6 mph77%29.70 "Hg31 mi
1:00 PM54 °FLight rain. Overcast.7 mph78%29.70 "Hg16 mi
12:00 PM54 °FLight rain. Overcast.7 mph79%29.72 "Hg31 mi
11:00 AM54 °FOvercast.6 mph79%29.73 "Hg37 mi
9:00 AM52 °FLight rain. Overcast.6 mph88%29.75 "Hg12 mi
8:00 AM53 °FOvercast.6 mph83%29.75 "Hg37 mi
7:00 AM53 °FLight rain. Overcast.5 mph84%29.76 "Hg37 mi
6:00 AM53 °FLight rain. Overcast.5 mph87%29.77 "Hg19 mi
5:00 AM53 °FDrizzle. Overcast.6 mph88%29.78 "Hg7 mi
3:00 AM53 °FDrizzle. Overcast.6 mph92%29.78 "Hg11 mi
2:00 AM54 °FLight freezing rain. Light fog.8 mph84%29.78 "Hg4 mi
1:00 AM54 °FOvercast.8 mph88%29.77 "Hg28 mi
12:00 AM54 °FOvercast.6 mph85%29.77 "Hg40 mi
Weather by CustomWeather, © 2014

See weather overviewHow to use our weather pages